Cloverdale, Indiana, United States (46120)
Lat: 39.51N, Lon: 86.79W
Wx Zone: INZ045
Local Info
Past Weather Observations for Monday, April 14, 2014

NOTE: This archive is for the closest National Weather Service station to Cloverdale. Information may differ from the station used for current weather conditions.

Time Weather Temperature Dewpoint Humidity Pressure Winds Precip Visibility
23:53
Partly Cloudy
73°F / 23°C 52°F / 11°C 47% 29.65 in
(1004 mb)
SSE 20.7 mph
(SSE 33 kph)
- 10SM
22:53
Clear
72°F / 22°C 52°F / 11°C 50% 29.68 in
(1005 mb)
S 16.1 mph
(S 26 kph)
- 10SM
21:53
Clear
70°F / 21°C 52°F / 11°C 53% 29.68 in
(1005 mb)
S 5.8 mph
(S 9 kph)
- 10SM
20:53
Partly Cloudy
72°F / 22°C 52°F / 11°C 50% 29.71 in
(1006 mb)
S 8.1 mph
(S 13 kph)
- 10SM
19:53
Mostly Cloudy
73°F / 23°C 52°F / 11°C 47% 29.71 in
(1006 mb)
SSE 11.5 mph
(SSE 19 kph)
- 10SM
18:53
Partly Cloudy
73°F / 23°C 54°F / 12°C 50% 29.71 in
(1006 mb)
SW 12.7 mph
(SW 20 kph)
- 10SM
17:53
Mostly Cloudy
73°F / 23°C 54°F / 12°C 50% 29.74 in
(1007 mb)
SW 13.8 mph
(SW 22 kph)
- 10SM
16:53
Overcast
77°F / 25°C 54°F / 12°C 44% 29.77 in
(1008 mb)
SW 13.8 mph
(SW 22 kph)
- 10SM
15:53
Mostly Cloudy
75°F / 24°C 52°F / 11°C 44% 29.77 in
(1008 mb)
SSE 17.3 mph
(SSE 28 kph)
- 10SM
14:53
Partly Cloudy
77°F / 25°C 52°F / 11°C 42% 29.8 in
(1009 mb)
SSE 12.7 mph
(SSE 20 kph)
- 10SM
13:53
Overcast
75°F / 24°C 55°F / 13°C 50% 29.83 in
(1010 mb)
S 16.1 mph
(S 26 kph)
- 10SM
12:53
Partly Cloudy
73°F / 23°C 54°F / 12°C 50% 29.86 in
(1011 mb)
SW 21.9 mph
(SW 35 kph)
- 10SM
11:53
Partly Cloudy
73°F / 23°C 54°F / 12°C 50% 29.89 in
(1012 mb)
SW 23 mph
(SW 37 kph)
- 10SM
10:53
Clear
73°F / 23°C 54°F / 12°C 50% 29.86 in
(1011 mb)
SW 19.6 mph
(SW 32 kph)
- 10SM
09:53
Partly Cloudy
72°F / 22°C 55°F / 13°C 57% 29.89 in
(1012 mb)
SSE 12.7 mph
(SSE 20 kph)
- 10SM
08:53
Clear
70°F / 21°C 55°F / 13°C 60% 29.89 in
(1012 mb)
SSE 15 mph
(SSE 24 kph)
- 10SM
07:53
Clear
66°F / 19°C 54°F / 12°C 64% 29.89 in
(1012 mb)
S 13.8 mph
(S 22 kph)
- 10SM
06:53
Clear
64°F / 18°C 54°F / 12°C 68% 29.89 in
(1012 mb)
S 11.5 mph
(S 19 kph)
- 10SM
05:53
Clear
64°F / 18°C 54°F / 12°C 68% 29.89 in
(1012 mb)
SSE 12.7 mph
(SSE 20 kph)
- 10SM
04:53
Partly Cloudy
64°F / 18°C 54°F / 12°C 68% 29.89 in
(1012 mb)
SW 11.5 mph
(SW 19 kph)
- 10SM
03:53
Clear
66°F / 19°C 52°F / 11°C 60% 29.89 in
(1012 mb)
SW 12.7 mph
(SW 20 kph)
- 10SM
02:53
Clear
66°F / 19°C 52°F / 11°C 60% 29.83 in
(1010 mb)
SW 17.3 mph
(SW 28 kph)
- 10SM
01:53
Clear
68°F / 20°C 52°F / 11°C 56% 29.83 in
(1010 mb)
SSE 17.3 mph
(SSE 28 kph)
- 10SM
00:53
Clear
70°F / 21°C 50°F / 10°C 50% 29.83 in
(1010 mb)
SSE 13.8 mph
(SSE 22 kph)
- 10SM
Time Weather Temperature Dewpoint Humidity Pressure Winds Precip Visibility


Weather for websites

WeatherForYou.com, LLC is not responsible for any damages or problems caused by this service. Current weather conditions are obtained from the closest station including government and personal stations which may have varying degrees of accuracy. Weather forecasts are derived from the NOAA NDFD. Like all things, this site belongs to Jesus Christ... He just trusts me to maintain it. If you have any questions or comments email webmaster@weatherforyou.com

Copyright © 2014, WeatherForYou.com LLC. All rights reserved.